Location: Melbourne
(37.8170°S, 144.9670°E)
Time: 06:22:33
(UTC+11:00)

ISS - All Passes

Search period start: 22 December 2014 00:00
Search period end: 01 January 2015 00:00
Orbit: 404 x 414 km, 51.6° (Epoch: 21 December)

Date Brightness Start Highest point End Pass type
(mag) Time Alt. Az. Time Alt. Az. Time Alt. Az.
22 Dec - 01:09:39 10° NNE 01:11:09 13° NE 01:12:40 10° E night (unlit)
22 Dec - 02:44:04 10° WNW 02:47:21 59° SW 02:50:41 10° SE visible
22 Dec - 04:22:52 10° SW 04:24:31 13° SSW 04:26:11 10° S visible
22 Dec - 07:38:09 10° SSW 07:40:12 15° SSE 07:42:15 10° ESE daylight
22 Dec - 09:13:51 10° SW 09:17:15 81° SE 09:20:37 10° NE daylight
23 Dec - 01:53:16 10° NW 01:56:34 70° NE 01:59:55 10° SE visible
23 Dec - 03:31:07 10° WSW 03:33:28 18° SSW 03:35:50 10° SSE visible
23 Dec - 06:47:56 10° S 06:49:06 11° SSE 06:50:17 10° SE daylight
23 Dec - 08:23:09 10° SW 08:26:24 43° SE 08:29:38 10° ENE daylight
23 Dec - 10:00:22 10° W 10:02:45 18° NW 10:05:08 10° N daylight
24 Dec - 01:02:48 10° NNW 01:05:49 34° NE 01:08:54 10° ESE visible
24 Dec - 02:39:35 10° W 02:42:26 26° SSW 02:45:20 10° SSE visible
24 Dec - 07:32:32 10° SSW 07:35:27 26° SSE 07:38:21 10° E daylight
24 Dec - 09:08:58 10° WSW 09:12:04 34° NW 09:15:09 10° NNE daylight
25 Dec - 00:12:49 10° N 00:15:07 18° NE 00:17:27 10° E night (unlit)
25 Dec - 01:48:16 10° WNW 01:51:27 42° SW 01:54:41 10° SE visible
25 Dec - 03:27:38 10° SW 03:28:45 11° SSW 03:29:52 10° S visible
25 Dec - 06:41:59 10° SSW 06:44:22 18° SSE 06:46:45 10° ESE daylight
25 Dec - 08:17:54 10° SW 08:21:16 71° NW 08:24:36 10° NE daylight
26 Dec - 00:57:11 10° NW 01:00:30 81° SW 01:03:51 10° SE visible
26 Dec - 02:35:32 10° WSW 02:37:32 15° SSW 02:39:33 10° SSE visible
26 Dec - 05:51:31 10° S 05:53:11 13° SSE 05:54:50 10° SE daylight
26 Dec - 07:27:00 10° SW 07:30:20 59° SE 07:33:39 10° ENE daylight
26 Dec - 09:04:56 10° W 09:06:32 13° NW 09:08:08 10° NNW daylight
27 Dec - 00:06:23 10° NNW 00:09:35 49° NE 00:12:50 10° ESE visible
27 Dec - 01:43:43 10° WSW 01:46:20 21° SSW 01:48:58 10° SSE visible
27 Dec - 05:01:35 10° S 05:01:53 10° SSE 05:02:12 10° SSE visible
27 Dec - 06:36:11 10° SW 06:39:18 33° SSE 06:42:23 10° E daylight
27 Dec - 08:12:57 10° WSW 08:15:46 25° NW 08:18:33 10° N daylight
27 Dec - 23:15:58 10° N 23:18:43 25° NE 23:21:29 10° ESE night (unlit)
28 Dec - 00:52:09 10° W 00:55:11 32° SSW 00:58:15 10° SSE visible
28 Dec - 05:45:27 10° SSW 05:48:08 21° SSE 05:50:47 10° E daylight
28 Dec - 07:21:36 10° WSW 07:24:52 49° NW 07:28:07 10° NNE daylight
28 Dec - 22:26:19 10° NNE 22:27:52 13° NE 22:29:26 10° E night (unlit)
29 Dec - 00:00:47 10° WNW 00:04:03 58° SW 00:07:22 10° SE visible
29 Dec - 01:39:37 10° SW 01:41:13 13° SSW 01:42:49 10° S visible
29 Dec - 04:54:48 10° SSW 04:56:51 15° SSE 04:58:53 10° ESE visible
29 Dec - 06:30:29 10° SW 06:33:51 82° SE 06:37:12 10° NE daylight
29 Dec - 23:09:41 10° NW 23:12:59 71° NE 23:16:18 10° SE visible
30 Dec - 00:47:32 10° WSW 00:49:51 17° SSW 00:52:12 10° SSE visible
30 Dec - 04:04:18 10° S 04:05:27 11° SSE 04:06:35 10° SE visible
30 Dec - 05:39:29 10° SW 05:42:43 43° SE 05:45:56 10° ENE daylight
30 Dec - 07:16:42 10° W 07:19:03 18° NW 07:21:23 10° N daylight
30 Dec - 22:18:54 10° NNW 22:21:56 34° NE 22:25:00 10° ESE visible
30 Dec - 23:55:41 10° W 23:58:32 26° SSW 00:01:24 10° SSE visible
31 Dec - 04:48:34 10° SSW 04:51:28 26° SSE 04:54:21 10° E visible
31 Dec - 06:24:59 10° WSW 06:28:04 34° NW 06:31:07 10° NNE daylight
31 Dec - 21:28:38 10° N 21:30:56 18° NE 21:33:14 10° E visible
31 Dec - 23:04:04 10° WNW 23:07:14 42° SW 23:10:27 10° SE visible
